Location: Arborea
(39.7744°N, 8.5819°E)
Time: 19:39:42
(UTC+00:00)

CZ-2C DEB - Pass Details

Date: 26 August 2022
Orbit: 681 x 927 km, 97.9° (Epoch: 03 October)

Event Time Altitude Azimuth Distance (km) Brightness Sun altitude
Rises 23:03:08 0° 349° (NNW) 3,351 ? -39.8°
Reaches altitude 10° 23:07:32 10° 314° (NW) 2,479 ? -39.9°
Maximum altitude 23:08:52 11° 300° (WNW) 2,433 ? -39.9°
Enters shadow 23:09:12 11° 296° (WNW) 2,441 ? -39.9°
